Overview Statistics Trail Chart Weather Telemetry Raw packets
 

This is the latest recevied weather packets stored in our database for station/object K0APR. If no packets are shown the sender has not sent any weather packets the latest 10 day(s).

<< 64 65 66 67 68 69 70 >>
Time Temp. Humidity Pressure Rain* Wind** Luminosity Snow
1788226454 23.33° C 70% 1013.3 hPa 0 mm - 0 W/m² -
1788226150 22.78° C 70% 1013.3 hPa 0 mm - 0 W/m² -
1788225845 23.33° C 71% 1013.7 hPa 0 mm - 0 W/m² -
1788225540 23.33° C 71% 1013.3 hPa 0 mm - 0 W/m² -
1788225236 23.33° C 71% 1013.3 hPa 0 mm - 0 W/m² -
1788224934 23.33° C 71% 1013 hPa 0 mm - 0 W/m² -
1788224629 23.33° C 71% 1013.3 hPa 0 mm - 0 W/m² -
1788224328 23.89° C 70% 1013.3 hPa 0 mm - 1 W/m² -
1788224023 23.89° C 69% 1013 hPa 0 mm - 2 W/m² -
1788223719 24.44° C 69% 1013.3 hPa 0 mm - 6 W/m² -
1788223418 25° C 68% 1013 hPa 0 mm - 9 W/m² -
1788223113 25° C 67% 1013.3 hPa 0 mm - 9 W/m² -
1788222808 25.56° C 66% 1013.3 hPa 0 mm - 11 W/m² -
1788222506 25.56° C 65% 1013 hPa 0 mm - 15 W/m² -
1788222201 26.11° C 64% 1013.3 hPa 0 mm - 24 W/m² -
1788221901 26.11° C 63% 1013.3 hPa 0 mm - 31 W/m² -
1788221596 26.11° C 63% 1013 hPa 0 mm - 36 W/m² -
1788221308 26.67° C 62% 1013.3 hPa 0 mm - 36 W/m² -
1788220992 26.67° C 61% 1013.3 hPa 0 mm - 40 W/m² -
1788220690 26.67° C 61% 1013.3 hPa 0 mm - 46 W/m² -
1788220386 26.67° C 61% 1013 hPa 0 mm - 51 W/m² -
1788220081 27.22° C 58% 1013.3 hPa 0 mm - 48 W/m² -
1788219781 27.22° C 57% 1013.3 hPa 0 mm - 40 W/m² -
1788219476 27.78° C 56% 1013.3 hPa 0 mm - 42 W/m² -
1788219172 28.33° C 54% 1013 hPa 0 mm - 63 W/m² -

* Rain latest hour (hover to see other rain measurements)
** Current wind speed in m/s (hover to see current wind gust speed)